Location: Nashville
(36.1660°N, 86.7840°W)
Time: 04:06:09
(UTC-05:00)

AO-91 - Visible Passes

Search period start: 16 May 2022 00:00
Search period end: 26 May 2022 00:00
Orbit: 452 x 799 km, 97.7° (Epoch: 15 May)

Date Brightness Start Highest point End Pass type
(mag) Time Alt. Az. Time Alt. Az. Time Alt. Az.
16 May ? 00:48:48 10° NNW 00:51:48 18° WNW 00:51:48 18° WNW visible
16 May ? 23:30:22 10° NNE 23:33:47 41° NNE 23:33:47 41° NNE visible
17 May ? 01:09:09 10° NW 01:11:02 12° WNW 01:11:04 12° WNW visible
17 May ? 22:15:39 10° ENE 22:15:45 10° ENE 22:15:45 10° ENE visible
17 May ? 23:49:23 10° N 23:53:02 43° NNW 23:53:02 43° NNW visible
18 May ? 22:33:20 10° NE 22:34:58 16° ENE 22:34:58 16° ENE visible
19 May ? 00:08:34 10° N 00:12:16 36° NW 00:12:16 36° NW visible
19 May ? 22:51:39 10° NNE 22:54:12 23° NE 22:54:12 23° NE visible
20 May ? 00:27:56 10° NNW 00:31:29 26° NW 00:31:29 26° NW visible
20 May ? 23:10:17 10° NNE 23:13:24 33° NE 23:13:24 33° NE visible
21 May ? 00:47:35 10° NNW 00:50:41 18° WNW 00:50:41 18° WNW visible
21 May ? 23:29:06 10° NNE 23:32:35 43° NNE 23:32:35 43° NNE visible
22 May ? 01:07:58 10° NW 01:09:37 11° WNW 01:09:52 11° WNW visible
22 May ? 23:48:04 10° N 23:51:45 45° NNW 23:51:45 45° NNW visible
23 May ? 22:32:05 10° NE 22:33:38 15° ENE 22:33:38 15° ENE visible
24 May ? 00:07:12 10° N 00:10:54 36° NW 00:10:54 36° NW visible
24 May ? 22:50:19 10° NE 22:52:46 22° ENE 22:52:46 22° ENE visible
25 May ? 00:26:32 10° NNW 00:30:02 26° NW 00:30:02 26° NW visible
25 May ? 23:08:52 10° NNE 23:11:53 32° NE 23:11:53 32° NE visible
